Regional Weather Roundup
Issued by NWS

Home | Current Version | Previous Version | Graphics & Text | Print | Product List | Glossary Off
Versions: 1 2 3 4 5 6 7 8 9 10 11 12 13 14 15 16 17 18 19 20 21 22 23 24 25 26 27 28 29 30 31 32 33 34 35 36 37 38 39 40 41 42 43 44 45 46 47 48 49 50

000
ASUS43 KDMX 211301
RWRIA

WEATHER ROUNDUP FOR IOWA
NATIONAL WEATHER SERVICE DES MOINES IA
700 AM CST TUE FEB 21 2017

NOTE: "FAIR" INDICATES FEW OR NO CLOUDS BELOW 12,000 FEET WITH NO
SIGNIFICANT WEATHER AND/OR OBSTRUCTIONS TO VISIBILITY.

* - THESE STATIONS ARE NOT NWS STATIONS...THUS NOT UNDER NWS
QUALITY CONTROL.  THEY ALSO DO NOT REPORT WEATHER SUCH
AS PRECIPITATION OR FOG.

IAZ001>003-012>014-020>022-031>034-043>046-211400-
   NORTHWEST IOWA

CITY           SKY/WX    TMP DP  RH WIND       PRES   REMARKS
CARROLL *      CLEAR     36  36 100 CALM      29.96R
CHEROKEE *     CLEAR     27  27 100 CALM      29.95S FOG
DENISON *      FOG       28  28 100 CALM      29.95R VSB 3/4
LE MARS *      CLEAR     32  32 100 SW5       29.94S WCI  27
SHELDON *      CLEAR     34  34 100 SE5       29.89F WCI  30
SIOUX CITY     CLEAR     32  30  92 E8        29.95S WCI  25
SPENCER        CLEAR     33  33 100 SW6       29.92S WCI  28
STORM LAKE *   CLEAR     36  36 100 SW9       29.95R WCI  29
$$

IAZ055>058-069>071-079>083-090>094-211400-
   SOUTHWEST IOWA

CITY           SKY/WX    TMP DP  RH WIND       PRES   REMARKS
ATLANTIC *     FOG       30  30 100 CALM      29.98R VSB 1/4
CLARINDA *     FOG       32  32 100 CALM      29.99S VSB<1/4
COUNCIL BLFS * CLEAR     36  36 100 SW7       29.99R FOG     WCI  30
CRESTON *      CLEAR     36  36 100 CALM      29.98R
HARLAN  *      FOG       30  30 100 CALM      30.01R VSB<1/4
LAMONI         CLOUDY    41  39  93 N6        29.95F
RED OAK *      FOG       30  30 100 CALM      29.98R VSB<1/4
SHENANDOAH *   FOG       32  32 100 S3        29.99R VSB 1/2
$$

IAZ047>049-059>061-072>074-084-211400-
   CENTRAL IOWA

CITY           SKY/WX    TMP DP  RH WIND       PRES   REMARKS
AMES           FOG       30  30 100 CALM      29.97R VSB 1/4
ANKENY *       FOG       30  30 100 CALM      29.98R VSB<1/4
BOONE *        FOG       34  34 100 SW5       29.95R VSB 1/4 WCI  30
CHARITON *     FOG       39  37  93 N3        29.95S VSB 1/4
DES MOINES     PTCLDY    37  36  96 CALM      29.96R
GRINNELL*      FOG       36  36  99 CALM      29.97R VSB 1/4
KNOXVILLE *    FOG       41  39  93 W5        29.94S VSB<1/4
MARSHALLTOWN   FOG       32  32 100 CALM      29.95R VSB 1/4
NEWTON *       FOG       34  34 100 W3        29.95R VSB<1/4
PELLA *        FOG       38  37  97 CALM      29.96S VSB<1/4
PERRY *          N/A     34  34  99 CALM      29.97R
$$

IAZ004>006-015-016-023>025-035-036-211400-
   NORTH CENTRAL IOWA

CITY           SKY/WX    TMP DP  RH WIND       PRES   REMARKS
ALGONA *       CLEAR     34  34 100 S8        29.94R FOG     WCI  27
CLARION *      FOG       32  32 100 S5        29.94R VSB 1/4 WCI  27
ESTHERVILLE    CLEAR     37  36  96 SW10      29.91R WCI  30
FORT DODGE *   MOCLDY    28  27  93 CALM      29.95R VSB 1/4
MASON CITY     FOG       27  26  96 W3        29.93S VSB 1/4
FOREST CITY *  FOG       28  28 100 CALM      29.94R VSB 1/2
IOWA FALLS *   FOG       33  32  97 S5        29.96R VSB 1/4 WCI  28
$$

IAZ007>011-017>019-026>030-037>042-050>054-066-211400-
   NORTHEAST IOWA

CITY           SKY/WX    TMP DP  RH WIND       PRES   REMARKS
CEDAR RAPIDS   CLOUDY    34  34 100 CALM      29.94S
CHARLES CITY * FOG       32  32 100 CALM      29.94S VSB<1/4
CLINTON *      FOG       43  43 100 W6        29.95S VSB 3/4
DECORAH *      PTCLDY    37  37 100 W3        29.92S FOG
DUBUQUE        CLEAR     39  37  92 N8        29.93S WCI  33
MONTICELLO *   FOG       36  36 100 CALM      29.94R VSB<1/4
OELWEIN *      FOG       30  30 100 CALM      29.94S VSB<1/4
WATERLOO       FOG       29  27  92 CALM      29.95R VSB 1/4
$$

IAZ064-065-067-068-078-211400-
   EAST CENTRAL IOWA

CITY           SKY/WX    TMP DP  RH WIND       PRES   REMARKS
DAVENPORT      PTCLDY    45  43  93 NW3       29.95S
IOWA CITY      MOCLDY    41  39  93 CALM      29.97R
MUSCATINE *    MOCLDY    45  43  93 N6        29.96S
QUAD CITIES    CLOUDY    49  44  83 CALM      29.94F
$$

IAZ062-063-075>077-085>089-095>099-211400-
   SOUTHEAST IOWA

CITY           SKY/WX    TMP DP  RH WIND       PRES   REMARKS
BURLINGTON     CLOUDY    50  48  93 N8        29.94F
FAIRFIELD *    CLOUDY    41  41 100 N3        29.94F FOG
KEOKUK *       CLOUDY    50  48  93 N6        29.94F
OTTUMWA        FOG       42  42 100 NW6       29.95S VSB 1
WASHINGTON *   CLOUDY    43  43 100 N3        29.96F
$$

ABBREVIATIONS USED IN REMARKS
   TC - TEMPERATURES IN CELSIUS
  WCI - WIND CHILL INDEX
   HX - HEAT INDEX
  VSB - VISIBILITY
$$




USA.gov is the U.S. government's official web portal to all federal, state and local government web resources and services.